This demonstration page uses our WeatherBlox Daily Observations layout. Learn more.

Left ArrowRight Arrow

39.95238, -75.16362

Hourly Observations for May 3, 2015

Temp ( °F °C ) Dew Point ( °F °C ) Humidity (%) Winds ( mph kmh ) Pressure ( in mb ) Visibility ( mi km ) Precip ( " mm )
12:54 am 00:54 Partly Cloudy 54 12.2 43 6.1 67 67 SSW 3 6 30.04 1017 10 16 0.00 0.00
1:54 am 01:54 Partly Cloudy 53 11.7 43 6.1 69 69 S 7 11 30.04 1017 10 16 0.00 0.00
2:54 am 02:54 Mostly Cloudy 51 10.6 43 6.1 74 74 ESE 5 7 30.04 1017 10 16 0.00 0.00
3:54 am 03:54 Mostly Cloudy 51 10.6 44 6.7 77 77 ENE 5 7 30.05 1018 10 16 0.00 0.00
4:54 am 04:54 Mostly Cloudy 51 10.6 43 6.1 74 74 ESE 7 11 30.05 1018 10 16 0.00 0.00
5:54 am 05:54 Mostly Cloudy 50 10 43 6.1 77 77 ESE 5 7 30.06 1018 10 16 0.00 0.00
6:54 am 06:54 Mostly Cloudy 51 10.6 43 6.1 74 74 E 5 7 30.08 1019 10 16 0.00 0.00
7:54 am 07:54 Mostly Cloudy 54 12.2 43 6.1 67 67 Calm 30.09 1019 10 16 0.00 0.00
8:54 am 08:54 Mostly Cloudy 58 14.4 45 7.2 62 62 Calm 30.11 1020 10 16 0.00 0.00
9:54 am 09:54 Partly Cloudy 61 16.1 47 8.3 60 60 S 5 7 30.10 1019 10 16 0.00 0.00
10:54 am 10:54 Partly Cloudy 69 20.6 45 7.2 42 42 Calm 30.11 1020 10 16 0.00 0.00
11:54 am 11:54 Mostly Sunny 72 22.2 45 7.2 38 38 SE 6 9 30.11 1020 10 16 0.00 0.00
12:54 pm 12:54 Mostly Sunny 76 24.4 39 3.9 26 26 ESE 5 7 30.10 1019 10 16 0.00 0.00
1:54 pm 13:54 Mostly Sunny 77 25 38 3.3 24 24 S 5 7 30.09 1019 10 16 0.00 0.00
2:54 pm 14:54 Partly Cloudy 79 26.1 37 2.8 22 22 S 7 11 30.08 1019 10 16 0.00 0.00
3:54 pm 15:54 Partly Cloudy 79 26.1 36 2.2 21 21 WSW 7 11 30.07 1018 10 16 0.00 0.00
4:54 pm 16:54 Partly Cloudy 79 26.1 35 1.7 20 20 SW 5 7 30.06 1018 10 16 0.00 0.00
5:54 pm 17:54 Partly Cloudy 81 27.2 37 2.8 21 21 Calm 30.07 1018 10 16 0.00 0.00
6:54 pm 18:54 Mostly Sunny 79 26.1 37 2.8 22 22 W 10 17 30.07 1018 10 16 0.00 0.00
7:54 pm 19:54 Mostly Sunny 77 25 36 2.2 23 23 SW 6 9 30.08 1019 10 16 0.00 0.00
8:54 pm 20:54 Clear 68 20 41 5 38 38 SSE 9 15 30.11 1020 10 16 0.00 0.00
9:54 pm 21:54 Clear 67 19.4 41 5 39 39 WSW 5 7 30.14 1021 10 16 0.00 0.00
10:54 pm 22:54 Clear 65 18.3 44 6.7 47 47 SSW 5 7 30.15 1021 10 16 0.00 0.00
11:54 pm 23:54 Clear 62 16.7 46 7.8 56 56 WSW 3 6 30.16 1021 10 16 0.00 0.00

Powered by AerisWeather